Flag for U.S.A. Weather past 2 weeks in Dallas, Texas, U.S.A.

Now
84 °F

Passing clouds.


Feels Like: 83 °F
Forecast: 56 / 83 °F
Wind: 17 mph from Southwest

Location: Dallas Love Field

Current Time: Mar 29, 2015 at 6:11:38 PM

Latest Report: Mar 29, 2015 at 4:53 PM


Visibility: 10 mi

Pressure: 29.90 "Hg

Humidity: 37%

Dew point: 55 °F

Location of DallasLocation

Historic Weather in Dallas — Graph

°F

Dallas temperature yesterday

Maximum temperature yesterday: 83 °F (at 4:53 PM)
Minimum temperature yesterday: 49 °F (at 5:53 AM)
Average temperature yesterday: 66 °F

Past Weeks' High & Low Weather Summary

 TemperatureHumidityPressure
High85 °F (Mar 29, 3:53 PM)97% (Mar 19, 7:53 AM)30.31 "Hg (Mar 19, 7:53 AM)
Low48 °F (Mar 27, 5:53 AM)26% (Mar 26, 6:53 PM)29.74 "Hg (Mar 25, 11:53 PM)
Average64 °F69%30.05 "Hg
* Reported Mar 14 4:53 PM — Mar 29 4:53 PM, Dallas, Weather by CustomWeather, © 2015

Note: Actual official high and low records may vary slightly from our data, if they occured in-between our weather recording intervals... More about our weather records

Advertising

Dallas weather history for previous 24 hours

 ConditionsComfort  
Time TempWeatherWind HumidityBarometerVisibility
4:53 PM
Sun, Mar 29
84 °FPassing clouds.17 mph37%29.90 "Hg10 mi
3:53 PM85 °FPassing clouds.18 mph39%29.93 "Hg10 mi
2:53 PM82 °FSunny.15 mph40%29.95 "Hg10 mi
1:53 PM81 °FSunny.17 mph44%29.98 "Hg10 mi
12:53 PM78 °FSunny.14 mph43%29.99 "Hg10 mi
11:53 AM75 °FSunny.15 mph45%30.02 "Hg10 mi
10:53 AM70 °FSunny.12 mph49%30.03 "Hg10 mi
9:53 AM64 °FSunny.15 mph58%30.03 "Hg10 mi
8:53 AM60 °FSunny.13 mph65%30.04 "Hg10 mi
7:53 AM58 °FClear.13 mph67%30.02 "Hg10 mi
6:53 AM59 °FClear.13 mph64%30.01 "Hg10 mi
5:53 AM60 °FClear.13 mph60%30.00 "Hg10 mi
4:53 AM60 °FClear.12 mph60%29.99 "Hg10 mi
3:53 AM61 °FClear.12 mph56%29.99 "Hg10 mi
2:53 AM65 °FClear.14 mph49%30.00 "Hg10 mi
1:53 AM66 °FClear.13 mph47%30.01 "Hg10 mi
12:53 AM67 °FClear.10 mph45%30.00 "Hg10 mi
11:53 PM
Sat, Mar 28
69 °FClear.10 mph42%29.99 "Hg10 mi
10:53 PM72 °FPassing clouds.14 mph37%29.99 "Hg10 mi
9:53 PM74 °FPassing clouds.14 mph35%29.98 "Hg10 mi
8:53 PM76 °FPassing clouds.14 mph33%29.96 "Hg10 mi
7:53 PM79 °FPassing clouds.13 mph32%29.95 "Hg10 mi
6:53 PM82 °FScattered clouds.14 mph31%29.94 "Hg10 mi
Weather by CustomWeather, © 2015

See weather overviewHow to use our weather pages